CW1492 Weather Reports


time (UTC)temp
F
wind
direction
speed
knots
gust
knots
rain 1hr
in
rain 24hr
in
rain mn
in
humidity
%
barometer
mb
20260510170413 63 286 1.7 3.5 0.00 0.25 0.01 73 1013.0
20260510170328 62 292 0.9 2.6 0.00 0.41 0.02 81 1011.8
20260510164917 63 263 0.9 6.1 0.00 0.41 0.02 79 1011.8
20260510164829 61 166 2.6 5.2 0.00 0.32 0.01 73 1013.1
20260510163340 62 158 0.9 7.8 0.00 0.32 0.01 72 1013.0
20260510163336 63 255 0.9 5.2 0.00 0.41 0.02 78 1011.7
20260510161933 62 246 3.5 7.8 0.00 0.32 0.01 72 1012.8
20260510161850 62 246 3.5 7.8 0.00 0.32 0.01 72 1012.8
20260510161831 62 173 3.5 6.1 0.00 0.48 0.02 79 1011.5
20260510160348 62 158 2.6 7.0 0.00 0.32 0.01 73 1012.8
20260510154852 61 237 2.6 9.6 0.00 0.38 0.01 78 1012.7
20260510154842 58 140 5.2 8.7 0.00 0.48 0.02 85 1011.6
20260510153408 58 152 5.2 9.6 0.00 0.48 0.02 87 1011.8
20260510153403 59 152 3.5 7.8 0.00 0.38 0.01 81 1012.8
20260510151827 57 137 6.1 8.7 0.00 0.38 0.01 82 1013.0
20260510151824 56 144 3.5 7.8 0.00 0.53 0.02 90 1011.8
20260510150435 57 125 4.3 9.6 0.00 0.38 0.01 81 1012.8
20260510150342 56 146 7.8 10.4 0.00 0.53 0.02 90 1011.6
20260510144852 55 133 3.5 8.7 0.00 0.41 0.01 84 1012.8
20260510144840 55 158 5.2 9.6 0.00 0.53 0.02 92 1011.8
20260510143401 55 188 3.5 7.8 0.00 0.41 0.01 83 1013.2
20260510143336 54 148 5.2 10.4 0.00 0.53 0.02 92 1011.9
20260510141844 55 151 3.5 8.7 0.00 0.41 0.01 84 1013.0
20260510141841 54 153 5.2 10.4 0.00 0.56 0.02 92 1011.9
20260510140435 54 156 3.5 7.0 0.00 0.41 0.01 85 1013.0
20260510140358 54 148 5.2 8.7 0.00 0.56 0.02 92 1011.8
20260510134932 54 130 3.5 8.7 0.00 0.43 0.01 86 1013.0
20260510134836 53 146 2.6 6.1 0.00 0.56 0.02 92 1011.8
20260510133423 53 124 2.6 5.2 0.00 0.43 0.01 86 1013.2
20260510133313 53 142 3.5 7.0 0.00 0.56 0.02 93 1012.0
20260510131902 53 142 1.7 5.2 0.00 0.57 0.02 94 1011.9
20260510131828 53 289 2.6 6.1 0.00 0.43 0.01 86 1013.4
20260510130413 52 149 2.6 7.8 0.00 0.43 0.01 87 1013.3
20260510130339 53 200 2.6 7.0 0.00 0.57 0.02 94 1011.8
20260510124902 52 146 1.7 4.3 0.00 0.57 0.02 94 1011.7
20260510124851 52 173 3.5 5.2 0.00 0.43 0.01 87 1013.1
20260510123337 52 280 0.9 5.2 0.00 0.43 0.01 87 1013.0
20260510123320 52 117 1.7 4.3 0.00 0.57 0.02 95 1011.6
20260510121903 52 115 1.7 7.8 0.00 0.57 0.02 95 1011.5
20260510121841 51 189 2.6 5.2 0.00 0.43 0.01 88 1012.9
20260510120330 51 114 1.7 5.2 0.00 0.43 0.01 87 1013.2
20260510120321 52 100 0.9 3.5 0.00 0.57 0.02 95 1011.8
20260510114841 52 138 1.7 5.2 0.00 0.57 0.02 95 1011.9
20260510114833 51 148 3.5 7.8 0.00 0.43 0.01 88 1013.2
20260510113345 51 140 1.7 3.5 0.00 0.43 0.01 88 1013.3
20260510113321 52 335 0.9 3.5 0.00 0.57 0.02 95 1012.0
20260510111846 51 114 1.7 6.1 0.00 0.43 0.01 88 1012.7
20260510111820 51 131 2.6 9.6 0.00 0.57 0.02 96 1011.3
20260510110349 51 141 3.5 7.8 0.00 0.43 0.01 88 1012.6
20260510110323 51 155 0.0 4.3 0.00 0.57 0.02 96 1011.7
20260510104905 51 220 0.9 3.5 0.00 0.57 0.02 96 1011.4
20260510104846 50 153 2.6 7.0 0.00 0.43 0.01 88 1012.5
20260510103437 50 79 5.2 11.3 0.00 0.43 0.01 88 1012.2
20260510103324 51 151 2.6 8.7 0.00 0.57 0.02 97 1010.8
20260510101859 50 266 0.9 3.5 0.00 0.43 0.01 89 1012.0
20260510101851 51 190 1.7 3.5 0.00 0.57 0.02 97 1010.8
20260510100340 50 111 2.6 7.0 0.00 0.43 0.01 88 1011.6
20260510100326 50 117 0.9 3.5 0.00 0.57 0.02 97 1010.4
20260510094857 50 167 1.7 3.5 0.00 0.57 0.02 97 1010.4
20260510094846 50 132 0.9 5.2 0.00 0.43 0.01 89 1011.6
20260510093333 50 222 0.9 2.6 0.00 0.57 0.02 97 1010.1
20260510091903 50 87 3.5 8.7 0.00 0.43 0.01 88 1011.3
20260510091855 50 217 1.7 7.8 0.00 0.57 0.02 97 1009.8
20260510090334 50 131 0.0 6.1 0.00 0.57 0.02 97 1010.0
20260510090326 50 139 3.5 7.8 0.00 0.43 0.01 89 1011.2
20260510084850 50 90 4.3 7.8 0.00 0.43 0.01 89 1011.4
20260510084826 50 275 1.7 4.3 0.00 0.57 0.02 97 1010.1
20260510083359 50 130 1.7 7.0 0.00 0.43 0.01 89 1011.8
20260510083329 50 126 0.9 1.7 0.00 0.57 0.02 97 1010.4
20260510081913 50 244 0.9 1.7 0.00 0.57 0.02 97 1010.7
20260510081852 50 141 3.5 6.1 0.00 0.43 0.01 89 1011.9
20260510080420 50 273 0.9 1.7 0.00 0.57 0.02 97 1010.6
20260510080354 50 114 2.6 7.0 0.00 0.43 0.01 89 1011.8
20260510074920 50 149 2.6 8.7 0.00 0.43 0.01 89 1011.8
20260510074834 50 121 0.9 1.7 0.00 0.57 0.02 98 1010.5
20260510073412 50 161 0.9 6.1 0.00 0.43 0.01 89 1011.8
20260510073329 50 161 0.9 6.1 0.00 0.43 0.01 89 1011.8
20260510071923 50 126 2.6 7.0 0.00 0.43 0.01 89 1011.6
20260510071840 50 126 2.6 7.0 0.00 0.43 0.01 89 1011.6
20260510071831 50 123 0.9 3.5 0.00 0.57 0.02 97 1010.2
20260510070430 50 94 3.5 6.1 0.00 0.43 0.01 89 1011.5
20260510070353 51 118 2.6 5.2 0.00 0.57 0.02 97 1010.2
20260510064929 50 112 0.9 3.5 0.00 0.43 0.01 89 1011.6
20260510064919 51 284 0.0 6.1 0.00 0.57 0.02 97 1010.2
20260510064825 50 112 0.9 3.5 0.00 0.43 0.01 89 1011.6
20260510063425 50 121 2.6 2.6 0.00 0.43 0.01 89 1011.6
20260510063314 51 317 0.9 1.7 0.01 0.57 0.02 97 1010.2
20260510061905 50 129 0.9 3.5 0.00 0.43 0.01 89 1011.6
20260510061813 51 171 0.0 7.0 0.01 0.57 0.02 98 1010.1
20260510060418 50 151 1.7 2.6 0.01 0.57 0.02 97 1010.4
20260510060350 50 109 1.7 3.5 0.00 0.43 0.01 89 1011.8
20260510054837 50 108 1.7 2.6 0.00 0.43 0.01 90 1011.6
20260510054834 50 148 0.0 0.0 0.01 0.57 0.02 97 1010.2
20260510053400 50 148 0.0 0.9 0.00 0.56 0.01 97 1010.6
20260510053356 48 87 1.7 2.6 0.00 0.43 0.01 89 1011.8
20260510051911 49 221 0.0 0.0 0.00 0.43 0.01 89 1011.9
20260510051814 50 148 0.9 3.5 0.01 0.56 0.01 97 1010.4
20260510050414 50 197 0.0 1.7 0.00 0.43 0.01 89 1011.8
20260510050313 51 143 4.3 6.1 0.01 0.56 0.01 97 1010.2
20260510044827 51 152 2.6 4.3 0.01 0.56 0.01 97 1010.5
20260510043336 49 158 2.6 5.2 0.01 0.43 0.01 89 1012.0
20260510043330 50 146 1.7 2.6 0.01 0.56 0.01 97 1010.6
20260510041844 50 224 0.0 4.3 0.00 0.55 0.55 97 1010.6
20260510041837 48 66 2.6 3.5 0.01 0.43 0.01 89 1012.1
20260510040407 50 117 0.0 1.7 0.00 0.55 0.55 96 1010.7
20260510040341 48 168 0.0 0.0 0.01 0.43 0.01 89 1012.2
20260510034913 48 168 0.0 0.0 0.00 0.42 0.42 89 1012.2
20260510034850 50 193 0.0 4.3 0.00 0.55 0.55 96 1010.7
20260510033336 48 212 0.0 0.9 0.00 0.42 0.42 88 1012.2
20260510033327 51 173 0.0 6.1 0.00 0.55 0.55 96 1010.7
20260510031840 49 161 0.0 1.7 0.00 0.42 0.42 89 1012.0
20260510031831 51 153 4.3 6.1 0.00 0.55 0.55 96 1010.6
20260510030333 51 150 5.2 7.0 0.00 0.55 0.55 96 1010.6
20260510030328 49 118 0.9 4.3 0.00 0.42 0.42 89 1012.1
20260510024919 49 87 2.6 5.2 0.00 0.42 0.42 89 1012.1
20260510024837 49 87 2.6 5.2 0.00 0.42 0.42 89 1012.1
20260510024831 51 154 3.5 5.2 0.00 0.55 0.55 96 1010.7
20260510023326 49 89 1.7 6.1 0.00 0.42 0.42 89 1012.3
20260510023314 50 153 4.3 7.0 0.00 0.55 0.55 96 1010.9
20260510021846 49 141 0.0 3.5 0.00 0.42 0.42 89 1012.5
20260510021836 51 120 1.7 7.8 0.00 0.55 0.55 96 1011.1
20260510020337 51 150 5.2 10.4 0.01 0.55 0.55 97 1011.2
20260510020332 48 143 0.0 1.7 0.00 0.42 0.42 89 1012.6
20260510014837 50 155 0.9 2.6 0.01 0.55 0.55 97 1011.3
20260510014832 47 101 0.0 0.0 0.00 0.42 0.42 89 1012.6
20260510013419 47 101 0.0 1.7 0.00 0.42 0.42 89 1012.5
20260510013338 50 263 0.9 6.1 0.01 0.55 0.55 97 1011.2
20260510011838 50 129 1.7 3.5 0.01 0.55 0.55 97 1011.1
20260510011829 47 101 0.0 0.0 0.00 0.42 0.42 89 1012.6
20260510010329 47 101 0.0 2.6 0.00 0.42 0.42 89 1012.4
20260510010322 49 86 0.0 0.9 0.01 0.54 0.54 96 1011.1
20260510004842 50 88 0.0 3.5 0.01 0.54 0.54 95 1010.8
20260510004838 47 122 0.0 0.9 0.00 0.42 0.42 89 1012.3
20260510003404 47 122 0.0 1.7 0.00 0.42 0.42 89 1012.2
20260510003338 50 155 2.6 5.2 0.02 0.54 0.54 96 1010.8
20260510001933 47 122 0.0 1.7 0.00 0.42 0.42 89 1012.0
20260510001847 50 138 3.5 6.1 0.02 0.54 0.54 96 1010.5
20260510000344 50 149 3.5 6.1 0.02 0.53 0.53 96 1010.4
20260510000334 47 247 0.0 3.5 0.00 0.42 0.42 89 1011.9
20260509234837 47 274 0.0 0.0 0.00 0.42 0.42 89 1011.9
20260509234824 50 138 4.3 7.0 0.03 0.53 0.53 97 1010.4
20260509233407 50 213 0.0 5.2 0.02 0.52 0.52 96 1010.4
20260509233327 47 182 0.0 1.7 0.00 0.42 0.42 89 1011.8
20260509231831 47 197 0.0 2.6 0.00 0.42 0.42 89 1011.8
20260509231827 50 134 0.9 3.5 0.03 0.52 0.52 97 1010.4
20260509230424 47 3 0.0 1.7 0.00 0.42 0.42 89 1011.9
20260509230328 50 113 0.0 0.9 0.03 0.51 0.51 96 1010.5
20260509224932 47 12 0.0 2.6 0.00 0.42 0.42 89 1012.0
20260509224845 49 197 0.0 0.9 0.03 0.50 0.50 96 1010.5
20260509223354 47 327 1.7 2.6 0.00 0.42 0.42 89 1011.8
20260509223326 49 150 0.9 5.2 0.04 0.50 0.50 96 1010.3
20260509221841 46 293 0.0 0.9 0.00 0.42 0.42 89 1011.6
20260509221826 49 115 1.7 3.5 0.04 0.49 0.49 96 1010.4
20260509220408 46 293 0.0 1.7 0.00 0.42 0.42 88 1011.8
20260509220315 49 137 1.7 4.3 0.04 0.48 0.48 96 1010.4
20260509214858 49 135 0.9 2.6 0.05 0.47 0.47 96 1010.4
20260509214852 46 292 0.0 0.0 0.01 0.42 0.42 89 1011.8
20260509213336 48 151 2.6 4.3 0.05 0.46 0.46 96 1010.5
20260509213329 46 260 0.9 3.5 0.02 0.42 0.42 89 1012.0
20260509211919 46 257 2.6 5.2 0.04 0.42 0.42 89 1012.3
20260509211833 48 168 2.6 7.8 0.05 0.45 0.45 95 1010.8
20260509210358 48 153 1.7 6.1 0.06 0.44 0.44 96 1011.0
20260509210340 46 253 0.0 2.6 0.05 0.42 0.42 88 1012.5
20260509204915 48 209 0.9 7.0 0.05 0.42 0.42 96 1011.1
20260509204909 46 137 0.0 2.6 0.06 0.41 0.41 88 1012.6
20260509203338 48 147 3.5 5.2 0.05 0.41 0.41 96 1011.1
20260509203331 46 247 1.7 3.5 0.07 0.40 0.40 88 1012.7
20260509201902 46 240 1.7 2.6 0.06 0.38 0.38 88 1012.6
20260509201900 48 141 2.6 3.5 0.06 0.40 0.40 95 1011.2
20260509200426 48 160 2.6 4.3 0.05 0.38 0.38 96 1011.2
20260509200411 46 245 0.9 2.6 0.07 0.37 0.37 88 1012.8
20260509194910 45 264 0.0 1.7 0.05 0.34 0.34 88 1012.8
20260509194905 47 139 2.6 3.5 0.06 0.37 0.37 95 1011.4
20260509193332 45 303 0.0 0.0 0.06 0.33 0.33 88 1012.8
20260509193323 47 142 2.6 5.2 0.05 0.35 0.35 95 1011.4
20260509191835 45 303 0.0 0.0 0.06 0.32 0.32 88 1013.1
20260509191819 47 146 0.9 2.6 0.05 0.34 0.34 95 1011.7
20260509190352 45 303 0.0 0.0 0.05 0.30 0.30 88 1013.2
20260509190342 47 113 0.0 1.7 0.06 0.33 0.33 95 1011.7
20260509184847 44 303 0.0 1.7 0.06 0.29 0.29 88 1013.4
20260509184845 47 159 1.7 2.6 0.05 0.31 0.31 94 1011.7
20260509183407 47 126 1.7 3.5 0.06 0.30 0.30 95 1011.8
20260509183353 44 260 0.0 0.9 0.06 0.27 0.27 88 1013.4
20260509181833 44 260 0.0 1.7 0.06 0.26 0.26 88 1013.4
20260509181825 46 135 2.6 6.1 0.06 0.29 0.29 94 1011.9
20260509180420 44 182 0.0 0.0 0.07 0.25 0.25 88 1013.6
20260509180337 44 182 0.0 0.0 0.07 0.25 0.25 88 1013.6
20260509180313 46 134 6.1 7.8 0.06 0.27 0.27 94 1012.2
20260509174927 44 182 0.0 0.9 0.07 0.23 0.23 88 1013.9
20260509174839 46 140 5.2 7.0 0.07 0.26 0.26 94 1012.4
20260509173359 46 142 5.2 7.0 0.06 0.24 0.24 94 1012.4
20260509173356 44 247 0.0 1.7 0.07 0.21 0.21 88 1014.0
20260509171915 44 277 0.0 1.7 0.07 0.20 0.20 88 1014.2
20260509171836 46 142 3.5 6.1 0.07 0.23 0.23 94 1012.6